Wind_Speed
13 13 12 13 13 13 12 12 12 13 13 13 13 14 14 14 14 14 13 14 14 13 13 12 12 13 13 12 12 11 10 10 9 8 7 7 6 6 5 4 3 3 2 1
13 12 13 14 13 13 13 12 13 13 13 13 13 14 14 14 14 14 14 14 14 14 13 13 13 14 14 14 13 12 12 11 10 9 8 7 7 6 5 4 4 4 3 2
13 13 13 14 14 13 13 13 13 13 13 13 13 13 13 13 14 14 13 14 14 14 14 14 14 14 15 15 14 14 14 12 11 10 9 8 8 7 6 6 5 4 3 2
15 14 14 14 14 14 14 14 14 14 13 13 13 13 14 13 13 14 14 13 14 14 14 14 15 15 16 16 15 15 14 13 12 12 11 9 9 8 7 6 6 4 4 3
16 16 15 15 15 15 15 14 14 14 14 14 14 14 14 13 12 13 13 13 13 13 13 14 15 15 16 16 15 15 15 14 14 13 11 11 9 9 8 7 6 5 4 3
17 17 16 15 16 15 15 15 15 14 14 14 14 14 14 14 13 13 13 13 13 14 14 14 14 15 15 16 16 16 15 14 14 13 12 12 10 10 9 8 7 6 5 4
18 18 17 16 16 16 16 15 15 14 14 14 13 14 13 13 13 13 13 13 13 14 14 13 13 14 14 15 15 15 14 14 14 14 13 12 11 11 9 9 8 7 5 4
19 19 18 17 17 16 16 15 15 14 14 13 13 14 13 13 13 13 13 13 13 13 13 13 13 13 14 15 15 15 15 15 15 14 14 13 12 12 11 10 9 8 7 5
19 19 18 17 17 17 16 15 15 15 14 14 14 14 13 13 13 13 13 13 13 13 13 14 13 14 14 15 16 15 15 15 15 15 14 13 12 12 12 11 10 9 8 7
19 19 19 18 17 17 16 16 15 14 14 14 13 13 13 12 12 12 13 12 12 12 13 14 14 14 14 15 15 16 15 15 15 15 15 14 14 13 13 12 11 10 9 8
20 19 19 18 17 16 16 16 15 15 15 14 13 13 12 12 11 11 11 12 12 11 12 13 13 14 14 14 15 15 16 16 16 16 16 15 15 15 14 13 12 11 10 9
20 20 19 18 18 18 17 16 15 15 15 14 14 13 13 12 11 11 11 11 11 11 12 13 13 14 14 14 15 15 16 16 16 16 16 15 15 15 14 13 13 12 11 10
22 21 20 20 19 19 18 17 16 15 15 14 13 13 13 12 12 12 12 12 12 11 11 12 13 14 15 15 15 16 16 16 16 15 15 15 15 15 14 13 13 12 11 11
23 22 22 20 19 19 18 18 17 16 15 14 13 13 13 12 12 12 11 11 12 12 11 12 13 14 14 15 15 16 15 16 16 15 14 14 14 14 14 13 13 12 12 11
24 24 23 22 22 21 20 19 19 18 16 15 14 14 13 13 12 12 12 11 11 11 12 12 13 13 14 15 16 16 16 16 15 15 14 14 14 14 13 13 13 13 12 12
25 25 24 23 23 23 22 21 20 19 18 16 15 14 15 14 13 13 13 12 11 11 12 12 12 13 13 15 16 16 16 16 15 15 15 15 15 14 14 13 12 12 12 12
26 25 25 24 23 23 23 21 20 19 18 18 16 14 16 15 14 13 13 12 12 12 12 13 13 13 13 14 15 16 16 16 15 15 15 16 15 14 14 13 13 13 13 12
28 27 25 25 25 25 21 21 21 20 19 18 16 15 15 15 15 14 13 13 12 12 12 12 13 14 14 14 15 16 17 16 16 15 16 17 16 15 14 14 14 13 13 13
29 28 27 26 26 24 22 21 20 20 19 18 17 16 15 15 15 14 14 13 12 11 12 13 14 14 14 15 15 15 17 17 17 16 16 17 17 16 15 14 14 14 14 14
30 29 29 28 27 25 22 22 21 21 20 19 18 17 16 15 14 14 14 13 12 12 12 13 13 14 14 14 15 15 15 17 17 17 18 18 18 17 17 17 16 15 16 15
31 31 30 29 28 26 23 22 22 21 19 19 18 17 16 15 15 14 14 14 14 13 13 14 14 14 15 15 15 15 16 16 17 18 18 18 18 17 18 18 17 17 16 16
30 32 31 30 29 27 24 24 23 20 20 19 18 18 17 16 15 15 15 15 14 14 14 14 14 15 15 15 16 17 18 18 18 18 19 19 18 17 17 17 18 18 17 17
31 31 31 30 29 27 25 24 22 22 20 19 19 19 18 18 17 16 15 15 15 15 15 15 16 16 16 16 15 16 18 19 18 18 19 19 18 18 17 17 17 18 17 17
31 31 31 30 29 28 27 26 24 24 22 21 20 20 19 18 17 17 16 16 16 16 16 17 17 17 17 17 17 17 18 18 19 19 19 19 19 18 18 17 17 17 17 17
32 31 30 30 29 29 28 26 25 25 24 23 22 21 20 19 18 18 17 16 16 16 16 16 17 17 17 18 18 18 18 19 20 19 19 20 20 19 19 18 18 18 18 18
32 31 30 29 29 29 28 27 26 25 25 24 23 22 21 20 20 19 18 18 17 17 17 17 17 18 18 19 19 19 19 19 19 19 20 20 20 19 19 19 19 19 19 19
Wind_Direction
260 259 261 261 260 261 263 265 267 268 267 266 265 265 265 265 266 267 267 267 264 261 260 258 257 254 250 247 244 238 236 236 235 230 222 215 207 204 202 196 194 191 185 177
256 258 261 260 260 261 264 266 266 266 267 268 268 266 267 265 265 265 264 264 262 261 258 257 256 252 248 245 240 235 232 233 233 226 214 211 207 200 196 194 193 189 182 159
254 257 259 261 260 260 263 267 267 267 269 269 268 266 266 265 263 263 263 262 262 263 261 257 255 250 246 243 239 234 232 232 227 221 213 212 210 204 201 196 193 190 181 165
252 255 258 260 262 260 262 265 268 268 268 268 268 265 267 267 265 264 263 261 260 261 259 256 253 248 244 242 238 232 229 228 226 220 213 213 210 205 202 199 196 192 188 181
254 256 258 258 260 260 260 263 266 268 268 268 268 268 268 267 266 265 263 260 258 259 258 255 251 245 242 239 235 231 230 229 226 223 216 212 209 202 199 199 197 192 188 186
254 255 255 256 257 259 262 264 265 266 268 269 270 269 267 266 265 264 263 260 255 256 256 253 248 244 241 239 234 232 230 226 223 219 215 210 207 202 200 200 199 193 190 189
254 254 254 255 257 259 262 265 266 266 268 270 270 269 269 266 264 262 261 259 257 254 252 248 245 242 238 237 233 228 225 221 219 216 211 208 209 205 204 203 201 197 197 197
254 255 255 256 258 261 261 261 263 265 267 267 266 267 270 268 265 261 259 259 256 253 250 246 242 238 237 235 229 224 221 219 218 215 211 211 212 211 209 209 208 205 205 204
252 253 252 253 255 256 256 257 260 261 264 266 268 266 267 266 264 261 257 254 252 252 249 245 241 238 236 234 226 222 219 217 215 213 213 213 215 215 213 213 213 211 211 213
249 251 251 251 251 253 254 256 257 259 263 265 268 265 263 263 263 259 254 251 251 250 246 243 241 236 233 229 225 222 218 219 218 216 216 217 217 217 214 214 216 214 213 214
247 250 250 248 249 252 253 253 255 259 261 262 268 264 258 261 260 260 255 250 250 249 245 244 242 235 233 231 227 221 220 220 219 218 220 220 218 217 217 217 217 215 215 216
244 246 247 248 248 247 248 251 253 255 258 262 265 262 258 257 257 259 257 251 248 247 244 242 240 234 231 229 228 223 221 221 221 220 219 220 219 217 216 215 215 215 216 218
239 240 242 244 245 244 246 249 252 254 257 259 260 259 258 257 257 257 257 252 247 246 242 240 238 234 231 227 224 222 220 219 218 218 218 218 217 214 214 213 213 216 216 218
237 238 239 243 246 245 245 247 250 252 255 255 252 252 257 257 257 255 254 251 247 245 242 240 236 234 229 223 222 220 218 217 216 217 216 214 212 210 211 212 215 217 218 220
236 236 237 238 239 240 242 244 247 251 251 249 244 247 252 255 253 253 256 256 251 244 241 238 232 228 226 222 221 219 218 217 217 218 217 214 213 211 212 214 216 220 223 226
235 236 236 238 237 238 241 243 246 248 248 247 246 246 249 253 252 251 254 256 251 244 238 236 229 225 223 219 218 219 217 217 218 218 215 214 213 211 214 215 219 223 224 228
234 236 237 237 237 239 240 242 244 247 247 248 248 247 247 250 253 253 255 256 246 240 234 231 229 222 219 219 218 220 216 216 217 218 216 215 216 216 219 222 225 226 228 233
232 233 235 237 238 240 242 241 242 244 245 245 245 246 245 247 250 251 253 252 245 241 235 231 225 218 219 221 222 219 216 217 220 222 218 217 218 220 223 226 231 231 234 238
230 230 233 236 238 239 239 239 240 241 242 243 243 244 244 247 248 248 252 246 242 242 236 230 226 223 222 222 222 218 216 218 221 224 222 220 220 223 226 230 234 237 239 242
228 230 232 235 237 238 238 239 239 239 240 241 242 242 242 243 243 247 246 242 240 237 234 231 228 227 224 222 221 219 218 220 222 224 224 223 224 226 230 232 236 240 244 245
227 229 230 233 236 236 236 236 237 238 238 238 239 239 239 238 239 242 242 240 238 236 234 231 227 226 226 225 225 225 225 226 227 226 226 226 226 229 231 234 237 242 246 248
228 228 230 233 233 234 234 235 235 236 237 237 236 237 238 238 239 241 242 239 236 235 235 231 228 228 230 230 231 229 227 228 229 229 228 226 226 230 234 237 240 242 246 246
229 230 231 233 233 233 234 234 233 234 235 235 235 237 238 239 240 242 241 238 237 237 235 233 231 230 232 233 234 231 229 231 231 230 228 227 229 233 237 238 240 242 243 244
230 230 232 232 232 233 233 232 232 232 233 234 235 235 236 237 240 241 241 239 238 238 236 235 234 233 232 232 232 232 231 229 231 230 227 227 230 234 237 238 239 240 243 244
229 231 232 233 233 231 231 231 231 231 232 233 233 234 235 237 239 241 242 241 239 237 237 237 237 236 235 233 231 231 232 233 234 231 229 229 231 237 239 242 244 244 245 247
228 230 231 233 232 230 229 230 231 230 230 231 234 235 236 237 240 242 242 242 241 240 239 239 237 237 236 234 233 231 232 234 233 231 230 231 233 238 241 244 244 244 247 249
Height
5863 5864 5864 5865 5865 5866 5866 5866 5866 5866 5865 5865 5865 5865 5865 5865 5865 5865 5865 5865 5865 5865 5865 5865 5865 5866 5866 5867 5867 5868 5869 5869 5870 5871 5871 5872 5872 5873 5874 5874 5874 5874 5875 5874
5860 5861 5861 5861 5862 5862 5863 5863 5863 5862 5862 5862 5862 5862 5862 5861 5861 5861 5861 5861 5861 5862 5862 5862 5862 5863 5864 5864 5865 5866 5867 5868 5869 5869 5870 5871 5872 5872 5873 5873 5874 5874 5874 5874
5856 5858 5857 5858 5858 5859 5859 5859 5859 5859 5859 5858 5859 5859 5859 5858 5858 5858 5858 5858 5858 5858 5859 5859 5860 5860 5861 5862 5863 5864 5865 5866 5867 5868 5869 5870 5871 5872 5872 5873 5873 5874 5874 5874
5852 5853 5854 5854 5855 5855 5856 5856 5856 5856 5856 5855 5856 5856 5855 5855 5854 5855 5855 5855 5855 5855 5856 5856 5856 5857 5858 5859 5860 5861 5863 5864 5865 5867 5868 5869 5870 5871 5872 5872 5873 5873 5873 5874
5848 5849 5850 5851 5851 5851 5852 5852 5852 5852 5852 5852 5852 5852 5853 5851 5851 5851 5851 5851 5852 5852 5852 5853 5853 5854 5855 5856 5858 5859 5860 5862 5863 5865 5866 5868 5869 5870 5871 5872 5872 5873 5873 5873
5844 5845 5845 5846 5847 5847 5848 5849 5848 5848 5848 5849 5849 5848 5849 5848 5848 5848 5848 5848 5848 5848 5849 5849 5850 5851 5852 5853 5855 5857 5858 5859 5861 5863 5865 5866 5868 5869 5870 5871 5872 5872 5873 5873
5840 5840 5841 5842 5843 5844 5844 5845 5845 5845 5845 5845 5845 5844 5845 5844 5844 5844 5844 5844 5844 5845 5845 5846 5846 5848 5849 5851 5852 5854 5855 5857 5859 5861 5863 5865 5866 5868 5869 5870 5871 5871 5872 5873
5835 5836 5837 5838 5839 5839 5840 5841 5842 5842 5842 5841 5841 5840 5842 5840 5840 5840 5840 5841 5841 5841 5842 5842 5843 5845 5846 5848 5850 5851 5853 5855 5857 5859 5861 5863 5865 5866 5868 5869 5870 5871 5871 5872
5830 5831 5832 5833 5834 5835 5835 5836 5837 5837 5837 5837 5837 5837 5837 5836 5836 5836 5836 5837 5838 5838 5838 5839 5840 5842 5843 5845 5847 5849 5851 5853 5855 5857 5859 5861 5863 5865 5866 5867 5868 5870 5870 5871
5825 5826 5827 5828 5829 5830 5831 5832 5832 5833 5833 5834 5834 5833 5834 5833 5832 5833 5833 5834 5834 5835 5835 5836 5837 5839 5840 5842 5844 5846 5849 5851 5853 5855 5857 5859 5861 5862 5864 5866 5867 5868 5869 5870
5819 5821 5822 5823 5824 5826 5827 5828 5828 5829 5829 5830 5830 5832 5830 5829 5829 5830 5830 5831 5831 5832 5832 5833 5835 5836 5838 5840 5842 5844 5846 5849 5851 5853 5855 5857 5859 5860 5862 5864 5865 5867 5868 5869
5814 5816 5817 5819 5820 5821 5822 5823 5824 5825 5826 5826 5827 5830 5826 5826 5826 5826 5827 5827 5828 5829 5830 5830 5832 5833 5835 5837 5839 5842 5844 5846 5849 5851 5853 5854 5856 5858 5860 5862 5863 5865 5866 5867
5807 5810 5812 5813 5816 5817 5817 5818 5820 5821 5821 5822 5823 5826 5823 5823 5823 5823 5824 5824 5825 5826 5826 5828 5829 5830 5832 5834 5836 5839 5841 5844 5846 5848 5850 5852 5854 5856 5858 5860 5861 5863 5864 5866
5801 5804 5807 5809 5810 5812 5813 5814 5815 5816 5817 5818 5819 5820 5820 5820 5820 5820 5821 5821 5822 5823 5823 5824 5826 5827 5829 5831 5834 5836 5839 5841 5844 5846 5848 5850 5852 5854 5856 5858 5859 5861 5862 5864
5794 5797 5800 5802 5803 5805 5807 5809 5810 5811 5813 5814 5815 5816 5816 5816 5817 5817 5818 5818 5819 5820 5820 5821 5823 5825 5827 5829 5831 5834 5836 5839 5841 5844 5846 5848 5850 5852 5854 5856 5857 5859 5860 5862
5787 5791 5793 5796 5797 5799 5801 5803 5805 5807 5808 5810 5811 5812 5813 5813 5814 5814 5815 5816 5816 5817 5818 5819 5820 5822 5824 5826 5828 5831 5834 5836 5839 5841 5843 5846 5848 5850 5852 5854 5855 5857 5858 5860
5781 5784 5787 5790 5792 5793 5796 5799 5800 5802 5804 5806 5807 5810 5809 5809 5810 5811 5812 5812 5813 5814 5815 5816 5818 5819 5821 5824 5826 5828 5831 5834 5836 5839 5841 5843 5846 5848 5850 5852 5853 5854 5856 5857
5775 5778 5781 5783 5786 5788 5794 5794 5796 5797 5799 5801 5803 5804 5805 5806 5807 5808 5809 5809 5810 5811 5812 5813 5815 5817 5819 5821 5823 5826 5828 5831 5834 5836 5838 5841 5843 5845 5847 5849 5851 5852 5853 5855
5767 5771 5774 5777 5779 5783 5787 5789 5791 5793 5795 5796 5798 5800 5801 5802 5803 5804 5805 5806 5807 5808 5809 5811 5812 5814 5816 5818 5820 5823 5825 5828 5831 5833 5835 5838 5840 5842 5844 5846 5848 5849 5851 5852
5760 5764 5768 5771 5774 5777 5783 5784 5785 5788 5790 5792 5793 5795 5797 5798 5800 5801 5801 5803 5804 5805 5806 5808 5810 5812 5814 5816 5818 5820 5822 5825 5827 5829 5832 5834 5836 5839 5841 5842 5844 5846 5847 5848
5753 5756 5760 5764 5767 5771 5776 5778 5780 5784 5787 5787 5789 5791 5792 5794 5796 5797 5798 5799 5801 5802 5803 5805 5807 5809 5811 5813 5815 5817 5819 5821 5823 5825 5828 5830 5832 5834 5836 5838 5840 5842 5843 5844
5745 5749 5753 5757 5761 5767 5769 5772 5776 5779 5780 5782 5784 5786 5788 5790 5792 5793 5794 5796 5797 5799 5800 5802 5804 5806 5807 5809 5811 5813 5815 5817 5819 5821 5823 5826 5828 5830 5832 5834 5836 5837 5839 5840
5738 5743 5747 5752 5757 5760 5764 5767 5770 5772 5775 5777 5780 5782 5784 5786 5787 5789 5791 5792 5794 5795 5797 5798 5800 5802 5804 5805 5807 5809 5811 5813 5815 5817 5819 5822 5824 5826 5828 5829 5831 5833 5834 5835
5731 5735 5740 5744 5749 5753 5756 5759 5763 5766 5769 5772 5774 5777 5779 5781 5783 5785 5787 5788 5789 5791 5793 5794 5796 5798 5800 5801 5803 5805 5807 5809 5811 5813 5815 5817 5820 5822 5823 5825 5827 5828 5830 5831
5724 5729 5732 5737 5742 5745 5749 5753 5757 5760 5763 5766 5769 5771 5774 5776 5779 5781 5782 5784 5785 5787 5788 5790 5792 5793 5795 5797 5798 5800 5802 5804 5806 5808 5811 5813 5815 5817 5819 5820 5822 5824 5825 5826
5717 5722 5726 5730 5735 5739 5744 5747 5750 5754 5757 5760 5763 5766 5769 5771 5774 5776 5777 5779 5781 5782 5784 5785 5787 5789 5790 5792 5794 5796 5798 5800 5802 5804 5806 5808 5810 5812 5814 5815 5817 5818 5820 5821